Weather History for Moose Lake, MN

Change the Weather History Date:

Thursday, February 7, 2013

  Actual Average Record
Temperature  
Mean Temperature 22 °F -  
Max Temperature 28 °F 24 °F 52 °F (1987)
Min Temperature 14 °F -5 °F -34 °F (1972)
Degree Days  
Heating Degree Days 44    
Moisture  
Dew Point 16 °F    
Average Humidity 74    
Maximum Humidity 86    
Minimum Humidity 59    
Precipitation  
Precipitation 0.00 in - - ()
Sea Level Pressure  
Sea Level Pressure 30.14 in    
Wind  
Wind Speed 2 mph (NE)    
Max Wind Speed 14 mph    
Max Gust Speed 21 mph    
Visibility 9 miles    
Events Snow    
Averages and records for this station are not official NWS values.
T = Trace of Precipitation, MM = Missing Value Source: NWS Daily Summary

Daily Weather History Graph

Daily Weather History Graph

Search for Another Location

Airport:

Trip Planner

Search our weather history database for the weather conditions in past years. The results will help you decide how hot, cold, wet, or windy it might be!

Date:

Astronomy

Feb. 07, 2013 Rise Set
Actual Time 7:26 AM CST 5:25 PM CST
Civil Twilight 6:54 AM CST 5:56 PM CST
Nautical Twilight 6:19 AM CST 6:32 PM CST
Astronomical Twilight 5:43 AM CST 7:07 PM CST
Moon 5:11 AM CST (2/7) 2:45 PM CST (2/7)
Length of Visible Light 11h 02m
Length of Day
9h 58m
Waning Crescent, 9% of the Moon is Illuminated
Feb 7
Waning Crescent
Feb 10
New
Feb 17
First Quarter
Feb 25
Full
Mar 4
Last Quarter

Hourly Weather History & Observations

Time (CST) Temp. Windchill Dew Point Humidity Pressure Visibility Wind Dir Wind Speed Gust Speed Precip Events Conditions
12:12 AM 21.2 °F - 15.8 °F 80% 30.04 in 7.0 mi Calm Calm - N/A   Overcast
12:32 AM 21.2 °F - 14.0 °F 74% 30.04 in 7.0 mi Calm Calm - N/A   Overcast
12:52 AM 21.2 °F - 15.8 °F 80% 30.04 in 5.0 mi Calm Calm - N/A   Haze
1:12 AM 21.2 °F - 17.6 °F 86% 30.04 in 5.0 mi Calm Calm - N/A   Haze
1:32 AM 21.2 °F - 17.6 °F 86% 30.04 in 7.0 mi Calm Calm - N/A   Overcast
1:52 AM 21.2 °F - 17.6 °F 86% 30.04 in 7.0 mi Calm Calm - N/A   Overcast
2:12 AM 21.2 °F - 17.6 °F 86% 30.04 in 10.0 mi Calm Calm - N/A   Overcast
2:32 AM 23.0 °F - 17.6 °F 80% 30.04 in 10.0 mi Calm Calm - N/A   Overcast
2:52 AM 23.0 °F - 17.6 °F 80% 30.04 in 10.0 mi Calm Calm - N/A   Overcast
3:12 AM 21.2 °F - 15.8 °F 80% 30.04 in 10.0 mi Calm Calm - N/A   Overcast
3:32 AM 21.2 °F - 17.6 °F 86% 30.05 in 10.0 mi Calm Calm - N/A   Overcast
3:52 AM 21.2 °F - 15.8 °F 80% 30.05 in 10.0 mi Calm Calm - N/A   Overcast
4:12 AM 23.0 °F - 17.6 °F 80% 30.05 in 10.0 mi Calm Calm - N/A   Overcast
4:32 AM 23.0 °F - 17.6 °F 80% 30.05 in 10.0 mi Calm Calm - N/A   Overcast
4:52 AM 23.0 °F - 17.6 °F 80% 30.06 in 10.0 mi Calm Calm - N/A   Overcast
5:12 AM 23.0 °F - 17.6 °F 80% 30.06 in 10.0 mi Calm Calm - N/A   Overcast
5:32 AM 23.0 °F - 17.6 °F 80% 30.06 in 10.0 mi Calm Calm - N/A   Overcast
5:52 AM 23.0 °F - 17.6 °F 80% 30.06 in 10.0 mi Calm Calm - N/A   Overcast
6:12 AM 23.0 °F - 17.6 °F 80% 30.06 in 10.0 mi Calm Calm - N/A   Overcast
6:32 AM 23.0 °F - 17.6 °F 80% 30.08 in 10.0 mi Calm Calm - N/A   Overcast
6:52 AM 23.0 °F - 17.6 °F 80% 30.09 in 10.0 mi Calm Calm - N/A   Overcast
7:12 AM 23.0 °F - 17.6 °F 80% 30.09 in 10.0 mi Calm Calm - N/A   Overcast
7:32 AM 23.0 °F - 17.6 °F 80% 30.09 in 10.0 mi Calm Calm - N/A   Overcast
7:52 AM 23.0 °F - 17.6 °F 80% 30.10 in 10.0 mi Calm Calm - N/A   Overcast
8:12 AM 24.8 °F - 17.6 °F 74% 30.12 in 10.0 mi Calm Calm - N/A   Overcast
8:32 AM 24.8 °F - 17.6 °F 74% 30.12 in 7.0 mi Calm Calm - N/A   Overcast
8:52 AM 24.8 °F - 17.6 °F 74% 30.11 in 7.0 mi Calm Calm - N/A   Overcast
9:12 AM 24.8 °F - 17.6 °F 74% 30.11 in 4.0 mi Calm Calm - N/A   Haze
9:32 AM 24.8 °F - 17.6 °F 74% 30.12 in 5.0 mi Calm Calm - N/A   Haze
9:52 AM 24.8 °F 16.9 °F 17.6 °F 74% 30.13 in 5.0 mi NNE 6.9 mph - N/A   Haze
10:12 AM 24.8 °F - 17.6 °F 74% 30.14 in 5.0 mi Calm Calm - N/A   Haze
10:32 AM 24.8 °F - 17.6 °F 74% 30.14 in 10.0 mi Calm Calm - N/A   Overcast
10:52 AM 26.6 °F 22.6 °F 17.6 °F 69% 30.14 in 10.0 mi NE 3.5 mph - N/A   Overcast
11:12 AM 26.6 °F 19.1 °F 15.8 °F 64% 30.15 in 10.0 mi NE 6.9 mph - N/A   Overcast
11:32 AM 26.6 °F 21.2 °F 15.8 °F 64% 30.16 in 10.0 mi NE 4.6 mph - N/A   Overcast
11:52 AM 26.6 °F - 15.8 °F 64% 30.16 in 10.0 mi Calm Calm - N/A   Overcast
12:12 PM 26.6 °F 22.6 °F 15.8 °F 64% 30.15 in 10.0 mi NE 3.5 mph - N/A   Overcast
12:32 PM 26.6 °F - 15.8 °F 64% 30.14 in 10.0 mi Calm Calm - N/A   Overcast
12:52 PM 26.6 °F 16.2 °F 15.8 °F 64% 30.14 in 10.0 mi NE 11.5 mph - N/A   Overcast
1:12 PM 26.6 °F 16.2 °F 15.8 °F 64% 30.14 in 10.0 mi NNE 11.5 mph 18.4 mph N/A   Overcast
1:32 PM 28.4 °F 19.7 °F 15.8 °F 59% 30.13 in 10.0 mi NE 9.2 mph - N/A   Overcast
1:52 PM 28.4 °F 19.1 °F 15.8 °F 59% 30.13 in 10.0 mi NE 10.4 mph - N/A   Overcast
2:12 PM 26.6 °F 19.1 °F 15.8 °F 64% 30.13 in 10.0 mi NE 6.9 mph 17.3 mph N/A   Overcast
2:32 PM 26.6 °F 15.2 °F 17.6 °F 69% 30.13 in 10.0 mi NNE 13.8 mph 19.6 mph N/A   Overcast
2:52 PM 26.6 °F 15.7 °F 17.6 °F 69% 30.13 in 10.0 mi NNE 12.7 mph - N/A   Overcast
3:12 PM 26.6 °F 15.2 °F 17.6 °F 69% 30.14 in 10.0 mi NNE 13.8 mph - N/A   Overcast
3:32 PM 26.6 °F 21.2 °F 17.6 °F 69% 30.15 in 10.0 mi NE 4.6 mph 19.6 mph N/A   Overcast
3:52 PM 26.6 °F 16.8 °F 17.6 °F 69% 30.15 in 10.0 mi NNE 10.4 mph 20.7 mph N/A   Overcast
4:12 PM 26.6 °F 16.2 °F 17.6 °F 69% 30.16 in 10.0 mi NNE 11.5 mph 16.1 mph N/A   Overcast
4:32 PM 26.6 °F 16.2 °F 17.6 °F 69% 30.16 in 10.0 mi NNE 11.5 mph 19.6 mph N/A   Overcast
4:52 PM 26.6 °F 16.8 °F 17.6 °F 69% 30.17 in 7.0 mi NE 10.4 mph 16.1 mph N/A   Overcast
5:12 PM 24.8 °F 17.9 °F 17.6 °F 74% 30.18 in 10.0 mi NE 5.8 mph 17.3 mph N/A   Overcast
5:32 PM 24.8 °F 16.1 °F 17.6 °F 74% 30.18 in 10.0 mi NE 8.1 mph - N/A   Overcast
5:52 PM 24.8 °F 14.6 °F 15.8 °F 69% 30.19 in 10.0 mi NE 10.4 mph - N/A Snow Light Snow
6:12 PM 24.8 °F 19.1 °F 15.8 °F 69% 30.20 in 10.0 mi NE 4.6 mph 18.4 mph N/A Snow Light Snow
6:32 PM 24.8 °F 16.9 °F 15.8 °F 69% 30.20 in 10.0 mi NE 6.9 mph - N/A Snow Light Snow
6:52 PM 24.8 °F 17.9 °F 15.8 °F 69% 30.21 in 10.0 mi NE 5.8 mph - N/A   Overcast
7:12 PM 23.0 °F 14.7 °F 14.0 °F 68% 30.21 in 10.0 mi NE 6.9 mph - N/A   Overcast
7:32 PM 23.0 °F - 14.0 °F 68% 30.21 in 10.0 mi Calm Calm - N/A Snow Light Snow
7:52 PM 23.0 °F - 14.0 °F 68% 30.22 in 10.0 mi Calm Calm - N/A   Overcast
8:12 PM 23.0 °F - 14.0 °F 68% 30.21 in 10.0 mi Calm Calm - N/A   Overcast
8:32 PM 23.0 °F - 14.0 °F 68% 30.22 in 10.0 mi Calm Calm - N/A   Overcast
8:52 PM 23.0 °F - 14.0 °F 68% 30.22 in 10.0 mi Calm Calm - N/A   Overcast
9:12 PM 21.2 °F - 14.0 °F 74% 30.24 in 10.0 mi Calm Calm - N/A Snow Light Snow
9:32 PM 21.2 °F - 14.0 °F 74% 30.24 in 10.0 mi Calm Calm - N/A   Overcast
9:52 PM 21.2 °F - 12.2 °F 68% 30.24 in 10.0 mi Calm Calm - N/A   Overcast
10:12 PM 19.4 °F - 12.2 °F 74% 30.24 in 10.0 mi Calm Calm - N/A   Scattered Clouds
10:32 PM 19.4 °F - 12.2 °F 74% 30.25 in 10.0 mi Calm Calm - N/A   Clear
10:52 PM 17.6 °F - 12.2 °F 79% 30.25 in 10.0 mi Calm Calm - N/A   Scattered Clouds
11:12 PM 15.8 °F - 10.4 °F 79% 30.25 in 10.0 mi Calm Calm - N/A   Overcast
11:32 PM 15.8 °F - 10.4 °F 79% 30.25 in 10.0 mi Calm Calm - N/A Snow Light Snow
11:52 PM 14.0 °F - 6.8 °F 73% 30.26 in 10.0 mi Calm Calm - N/A   Mostly Cloudy